User: anonymous   Login
Location: Houston
(29.7630°N, 95.3630°W)
Time: 06:17:21
(UTC-05:00)
Language:

Saudisat 1A - Orbit

View from above orbital plane
View from above orbital plane
View from above satellite
View from above satellite

Ground track
Ground track

The orbit data is extracted from the following two-line orbital elements,

1 26546U 00057B   14296.78246743  .00003285  00000-0  36927-3 0  4092
2 26546 064.5555 120.1703 0007192 309.9909 050.0567 14.88375808762535
Epoch (UTC): 23 October 2014 18:46:45
Eccentricity: 0.0007192
inclination: 64.5555°
perigee height: 598 km
apogee height: 608 km
right ascension of ascending node: 120.1703°
argument of perigee: 309.9909°
revolutions per day: 14.88375808
mean anomaly at epoch: 50.0567°
orbit number at epoch: 76253

The dashed part of the orbit path shows where the satellite is in the earth's shadow,  

DLR